[[{"header":{"parameterUnit":"m.s-1","parameterCategory":1,"la1":30.2991,"la2":30.254,"lo1":-89.0895,"lo2":-89.0444,"dy":0.0017,"dx":0.0017,"nx":28,"ny":28,"refTime":"2025-11-13T03:00:00:Z","depth":0,"parameterNumber":2,"parameterNumberName":"U-component_of_WINDS"},"data":[0,0,0,0,0,0,0,0,0,0,0,0,0,0,0,0,0,0,0,0,0,0,0,0,0,0,0,0,0,0,0,0,0,0,0,0,0,0,0,0,0,0,0,0,0,0,0,0,0,0,0,0,0,0,0,0,0,0,-0.2937,-0.2936,0,-0.2841,-0.284,-0.2839,-0.2769,-0.2769,-0.2768,-0.2768,-0.267,-0.2668,-0.2666,0,0,0,0,0,0,0,0,0,0,0,0,0,-0.3063,-0.3061,-0.2937,-0.2936,-0.2935,-0.2841,-0.284,-0.2839,-0.2769,-0.2769,-0.2768,-0.2767,-0.2671,-0.2669,-0.2666,0,0,0,0,0,0,0,0,0,0,0,0,0,-0.2992,-0.3061,-0.2937,-0.2889,-0.2884,-0.2842,-0.284,-0.2838,-0.277,-0.2769,-0.2768,-0.2767,-0.2672,-0.2669,-0.2666,-0.2665,0,0,-0.2657,-0.2655,0,0,0,0,0,0,0,0,-0.2996,-0.2988,-0.2897,-0.2892,-0.2886,-0.2816,-0.2849,-0.278,-0.277,-0.2813,-0.2768,-0.2767,-0.272,-0.2713,-0.2697,-0.266,-0.2656,-0.2656,-0.2654,-0.2653,-0.2652,0,0,0,0,0,0,0,-0.3001,-0.2991,-0.2899,-0.2896,-0.2889,-0.2873,-0.2862,-0.2835,-0.2773,-0.2809,-0.2804,-0.2793,-0.2717,-0.27,-0.2694,-0.2654,-0.2656,-0.2654,-0.2652,-0.2651,-0.2615,-0.2616,0,0,0,0,0,0,-0.3014,-0.2996,-0.2902,-0.2896,-0.294,-0.2871,-0.2859,-0.284,-0.2773,-0.2761,-0.2794,-0.279,-0.2705,-0.2698,-0.269,-0.2686,-0.2653,-0.265,-0.2649,-0.2614,-0.2615,-0.2616,0,0,0,0,0,0,-0.3017,-0.3006,-0.2906,-0.2945,-0.2931,-0.287,-0.2849,-0.2838,-0.2821,-0.2761,-0.275,-0.2788,-0.2704,-0.2694,-0.2672,-0.2682,-0.2649,-0.2646,-0.2613,-0.2615,-0.2616,-0.2677,0,0,0,0,0,0,-0.302,-0.3007,-0.3005,-0.2945,-0.2929,-0.2889,-0.285,-0.2837,-0.2816,-0.281,-0.2753,-0.2743,-0.2703,-0.2677,-0.2669,-0.2677,-0.2644,-0.2612,-0.2614,-0.2615,-0.2674,-0.268,-0.2685,0,0,0,0,0,-0.3025,-0.3026,-0.3006,-0.2995,-0.2925,-0.2889,-0.288,-0.2834,-0.2817,-0.2815,-0.2777,-0.2744,-0.2682,-0.2675,-0.2666,-0.2673,-0.2611,-0.2613,-0.2615,-0.2671,-0.2679,-0.2685,0,0,0,0,0,0,-0.3088,-0.3017,-0.2994,-0.2975,-0.2939,-0.2878,-0.2874,-0.2844,-0.2812,-0.2808,-0.2753,-0.2741,-0.2725,-0.2696,-0.269,-0.2669,-0.2643,-0.2643,-0.2688,-0.2695,-0.2701,-0.2708,-0.2641,0,0,0,0,0,-0.31,-0.3077,-0.3016,-0.3005,-0.2988,-0.2935,-0.2917,-0.2885,-0.2846,-0.283,-0.279,-0.2754,-0.2726,-0.2709,-0.268,-0.2669,-0.2657,-0.267,-0.2676,-0.2681,-0.2682,-0.2676,-0.2682,-0.2623,-0.2623,-0.2623,0,0,-0.3124,-0.3082,-0.3071,-0.3017,-0.2985,-0.2963,-0.2922,-0.29,-0.2883,-0.2827,-0.2804,-0.2774,-0.2729,-0.2714,-0.2704,-0.2689,-0.2696,-0.2683,-0.2688,-0.2686,-0.2679,-0.2685,-0.269,-0.2624,-0.2624,-0.2624,0,0,-0.3157,-0.3122,-0.311,-0.308,-0.3033,-0.2998,-0.2995,-0.2939,-0.2917,-0.2893,-0.2851,-0.2831,-0.2784,-0.2755,-0.2734,-0.2759,-0.2729,-0.2751,-0.2782,-0.2778,-0.2782,-0.2786,-0.2797,-0.2801,-0.2753,-0.2753,-0.2753,0,-0.3193,-0.3157,-0.3108,-0.3089,-0.3068,-0.3016,-0.3005,-0.2978,-0.2924,-0.2911,-0.2895,-0.2837,-0.2803,-0.2781,-0.2788,-0.2772,-0.2769,-0.2757,-0.2786,-0.2789,-0.2792,-0.2801,-0.2805,-0.2756,-0.2755,-0.2755,-0.2755,0,-0.3204,-0.3181,-0.3177,-0.3127,-0.3105,-0.309,-0.304,-0.3024,-0.2995,-0.2962,-0.294,-0.2898,-0.2861,-0.2853,-0.2824,-0.2828,-0.282,-0.2796,-0.2768,-0.2802,-0.281,-0.2813,-0.276,-0.2759,-0.2758,-0.2757,0,0,-0.3272,-0.3197,-0.3197,-0.3174,-0.312,-0.3101,-0.3085,-0.3049,-0.3037,-0.3002,-0.2988,-0.2951,-0.2929,-0.2906,-0.2873,-0.2869,-0.2894,-0.2845,-0.2843,-0.2857,-0.2898,-0.2917,-0.2922,-0.2874,-0.2874,-0.2875,-0.2902,0,-0.3297,-0.3264,-0.3222,-0.3204,-0.3182,-0.3135,-0.3121,-0.3087,-0.3057,-0.3035,-0.3001,-0.2977,-0.2948,-0.2934,-0.2928,-0.2893,-0.2902,-0.289,-0.2862,-0.2861,-0.2875,-0.2926,-0.2946,-0.2974,-0.2905,-0.2905,-0.2906,0,-0.3321,-0.329,-0.327,-0.322,-0.3209,-0.3198,-0.3162,-0.3142,-0.3103,-0.3082,-0.3057,-0.3023,-0.3005,-0.298,-0.2956,-0.2949,-0.2935,-0.2917,-0.2917,-0.2912,-0.2886,-0.2925,-0.2981,-0.2986,-0.291,-0.291,-0.2909,0,-0.3375,-0.3327,-0.331,-0.3292,-0.3233,-0.3226,-0.3201,-0.3162,-0.3144,-0.3113,-0.3102,-0.307,-0.3053,-0.303,-0.2988,-0.2974,-0.297,-0.2941,-0.2952,-0.2954,-0.2953,-0.2954,-0.301,-0.2944,-0.2944,-0.2944,-0.2944,0,-0.3407,-0.3397,-0.3334,-0.3323,-0.3312,-0.3263,-0.3254,-0.3225,-0.3191,-0.3175,-0.3132,-0.3118,-0.3064,-0.3044,-0.3012,-0.2999,-0.2991,-0.2974,-0.2966,-0.2978,-0.298,-0.2968,-0.2966,-0.2945,-0.2944,-0.2944,-0.2944,0,-0.3464,-0.3421,-0.3399,-0.3346,-0.3332,-0.3326,-0.3281,-0.327,-0.3237,-0.3218,-0.3211,-0.3161,-0.3136,-0.3093,-0.3055,-0.3034,-0.3027,-0.3012,-0.304,-0.3035,-0.305,-0.3049,-0.31,-0.3105,-0.3035,-0.3036,-0.3037,0,-0.3488,-0.348,-0.3426,-0.3412,-0.3389,-0.3367,-0.3349,-0.3302,-0.3285,-0.3242,-0.3237,-0.3209,-0.3184,-0.3147,-0.3108,-0.308,-0.3064,-0.3084,-0.306,-0.3074,-0.3066,-0.3068,-0.3068,-0.309,-0.3091,-0.3092,-0.3092,0,-0.3535,-0.3515,-0.349,-0.3459,-0.3438,-0.3411,-0.3382,-0.3374,-0.3321,-0.3304,-0.3278,-0.3259,-0.3222,-0.3195,-0.3162,-0.3138,-0.3107,-0.3101,-0.3102,-0.3115,-0.3132,-0.3125,-0.3056,-0.3099,-0.3099,-0.3098,-0.3098,-0.3098,-0.3577,-0.3568,-0.353,-0.3504,-0.3478,-0.3452,-0.344,-0.3407,-0.3384,-0.335,-0.3324,-0.3301,-0.3266,-0.3218,-0.3196,-0.3178,-0.3164,-0.3165,-0.3166,-0.3167,-0.3173,-0.3135,-0.3172,-0.3172,-0.3171,-0.3171,-0.3171,0,-0.3624,-0.3597,-0.3574,-0.3535,-0.3516,-0.3488,-0.3456,-0.3442,-0.3422,-0.3391,-0.3368,-0.334,-0.3315,-0.3275,-0.3247,-0.324,-0.3226,-0.3235,-0.3235,-0.323,-0.3187,-0.3189,-0.3247,-0.3247,-0.3247,-0.3247,-0.3247,-0.3247,-0.3645,-0.363,-0.3605,-0.3577,-0.3551,-0.3528,-0.3511,-0.3489,-0.3464,-0.3435,-0.3414,-0.3388,-0.3354,-0.3324,-0.33,-0.3289,-0.3282,-0.3295,-0.328,-0.324,-0.3233,-0.3226,-0.3228,-0.3294,-0.3294,-0.3325,-0.3326,-0.3326]},{"header":{"parameterUnit":"m.s-1","parameterCategory":1,"la1":30.2991,"la2":30.254,"lo1":-89.0895,"lo2":-89.0444,"dy":0.0017,"dx":0.0017,"nx":28,"ny":28,"refTime":"2025-11-13T03:00:00:Z","depth":0,"parameterNumber":3,"parameterNumberName":"V-component_of_WINDS"},"data":[0,0,0,0,0,0,0,0,0,0,0,0,0,0,0,0,0,0,0,0,0,0,0,0,0,0,0,0,0,0,0,0,0,0,0,0,0,0,0,0,0,0,0,0,0,0,0,0,0,0,0,0,0,0,0,0,0,0,1.9376,1.9376,0,1.9345,1.9345,1.9345,1.9352,1.9352,1.9353,1.9354,1.9316,1.9315,1.9313,0,0,0,0,0,0,0,0,0,0,0,0,0,1.9436,1.9435,1.9376,1.9376,1.9375,1.9345,1.9345,1.9344,1.9352,1.9352,1.9353,1.9354,1.9317,1.9315,1.9313,0,0,0,0,0,0,0,0,0,0,0,0,0,1.9408,1.9435,1.9376,1.9376,1.9375,1.9345,1.9345,1.9344,1.9352,1.9353,1.9353,1.9354,1.9318,1.9315,1.9313,1.928,0,0,1.9306,1.9305,0,0,0,0,0,0,0,0,1.941,1.9406,1.9376,1.9376,1.9375,1.9354,1.9353,1.9323,1.9351,1.936,1.9354,1.9355,1.9328,1.9325,1.9317,1.9279,1.9277,1.9306,1.9304,1.9303,1.9303,0,0,0,0,0,0,0,1.9412,1.9407,1.9364,1.9376,1.9375,1.9375,1.9372,1.9347,1.9339,1.936,1.936,1.9357,1.9328,1.9319,1.9316,1.9277,1.9306,1.9304,1.9302,1.9301,1.9209,1.9208,0,0,0,0,0,0,1.9415,1.9409,1.9365,1.9363,1.9395,1.9373,1.937,1.9359,1.9339,1.9337,1.9356,1.9357,1.9322,1.9319,1.9315,1.9274,1.9303,1.9301,1.93,1.921,1.9209,1.9207,0,0,0,0,0,0,1.9416,1.9411,1.9366,1.9386,1.938,1.9371,1.9359,1.9358,1.935,1.9337,1.9335,1.9349,1.9323,1.9318,1.9289,1.9273,1.93,1.9298,1.9211,1.9209,1.9208,1.9193,0,0,0,0,0,0,1.9418,1.9411,1.94,1.9386,1.9379,1.9342,1.9358,1.9357,1.9346,1.9348,1.9329,1.9327,1.9323,1.9292,1.9287,1.927,1.9296,1.9212,1.921,1.9208,1.9194,1.9191,1.9187,0,0,0,0,0,1.942,1.9396,1.9399,1.9394,1.9365,1.9341,1.9338,1.9335,1.9345,1.9332,1.9324,1.9328,1.9276,1.9289,1.9283,1.9265,1.9213,1.9211,1.9209,1.9196,1.9191,1.9187,0,0,0,0,0,0,1.9406,1.9394,1.9398,1.9369,1.9356,1.9343,1.9327,1.933,1.9313,1.9315,1.9311,1.9307,1.9277,1.9269,1.9284,1.9232,1.9246,1.9242,1.9238,1.9234,1.923,1.9232,1.9294,0,0,0,0,0,1.94,1.9384,1.9373,1.9348,1.9342,1.9336,1.9325,1.9325,1.9311,1.9305,1.9295,1.928,1.926,1.9247,1.9228,1.9194,1.9189,1.9179,1.9175,1.9172,1.9168,1.9148,1.9143,1.92,1.92,1.92,0,0,1.9387,1.9378,1.9367,1.9346,1.9336,1.9317,1.9331,1.9311,1.9296,1.9301,1.9274,1.9266,1.9248,1.9217,1.9202,1.9208,1.9152,1.9169,1.9167,1.9164,1.9145,1.914,1.9135,1.9198,1.9198,1.9198,0,0,1.9352,1.9345,1.9323,1.9313,1.9299,1.9295,1.929,1.9276,1.9272,1.9244,1.9248,1.923,1.9196,1.9183,1.9172,1.9134,1.9136,1.9128,1.9108,1.9089,1.9084,1.908,1.9064,1.9059,1.9125,1.9124,1.9124,0,1.9336,1.931,1.9311,1.929,1.9279,1.9286,1.9262,1.9253,1.9232,1.9224,1.9233,1.919,1.9179,1.9144,1.9135,1.9126,1.9118,1.9129,1.9085,1.9081,1.9077,1.9062,1.9056,1.9123,1.9124,1.9124,1.9124,0,1.929,1.9272,1.9256,1.9238,1.9226,1.9203,1.9199,1.9187,1.9188,1.9182,1.9153,1.9141,1.9119,1.9111,1.9111,1.9075,1.9079,1.9087,1.91,1.9071,1.9056,1.9051,1.9122,1.9122,1.9123,1.9123,0,0,1.9244,1.9228,1.9222,1.9213,1.9199,1.9183,1.9161,1.9142,1.913,1.9117,1.9096,1.9068,1.9075,1.9063,1.9061,1.9044,1.9012,1.9053,1.9053,1.9044,1.897,1.8963,1.8956,1.9015,1.9014,1.9013,1.8971,0,1.9207,1.9169,1.917,1.9134,1.9116,1.9123,1.9103,1.9091,1.9086,1.9068,1.9061,1.9041,1.9052,1.9045,1.9029,1.902,1.8997,1.9023,1.8993,1.8992,1.8995,1.8949,1.8941,1.8902,1.8965,1.8964,1.8964,0,1.9158,1.9144,1.9107,1.9095,1.9087,1.907,1.9051,1.9036,1.9021,1.9019,1.9005,1.9007,1.8982,1.8999,1.8963,1.8981,1.8969,1.8963,1.8962,1.8956,1.8974,1.894,1.889,1.8883,1.8955,1.8956,1.8956,0,1.9125,1.9097,1.9071,1.9064,1.905,1.9037,1.903,1.9017,1.9005,1.8989,1.8981,1.8962,1.895,1.8935,1.893,1.8943,1.8894,1.8911,1.8889,1.8889,1.8876,1.8876,1.882,1.8873,1.8873,1.8873,1.8873,0,1.9081,1.9058,1.9056,1.904,1.9013,1.9014,1.8987,1.8981,1.897,1.8951,1.8956,1.8938,1.8934,1.8914,1.8911,1.8881,1.8876,1.8872,1.887,1.887,1.887,1.886,1.8861,1.8871,1.8872,1.8872,1.8872,0,1.9039,1.9038,1.9009,1.8999,1.8996,1.8976,1.8966,1.895,1.8946,1.8922,1.8916,1.8909,1.8886,1.8881,1.8854,1.8851,1.8815,1.8818,1.882,1.882,1.8797,1.8799,1.873,1.872,1.8782,1.8781,1.8781,0,1.901,1.8993,1.8981,1.8969,1.8962,1.8944,1.8932,1.8932,1.892,1.8903,1.8888,1.8866,1.8849,1.8812,1.8803,1.8782,1.8782,1.876,1.8779,1.8778,1.8779,1.8779,1.8776,1.8755,1.8755,1.8754,1.8754,0,1.8959,1.8959,1.8943,1.8926,1.8913,1.8899,1.8886,1.8876,1.8874,1.886,1.8838,1.8824,1.8798,1.8775,1.8754,1.8745,1.8748,1.8749,1.8742,1.874,1.8741,1.8737,1.8808,1.8749,1.875,1.875,1.875,1.875,1.892,1.8905,1.8894,1.8875,1.8866,1.8854,1.8838,1.8833,1.8815,1.8794,1.8795,1.877,1.8756,1.8729,1.8718,1.8698,1.8704,1.8695,1.8692,1.8689,1.8686,1.8747,1.8694,1.8694,1.8694,1.8695,1.8695,0,1.8867,1.886,1.8844,1.8826,1.8812,1.8819,1.8805,1.8792,1.8771,1.8758,1.8742,1.8716,1.8694,1.8684,1.8662,1.8648,1.8648,1.8642,1.8641,1.8639,1.8683,1.869,1.8641,1.8641,1.8641,1.8641,1.8641,1.8641,1.8837,1.881,1.8809,1.8777,1.8771,1.8748,1.8739,1.8727,1.8717,1.8689,1.8672,1.8666,1.8654,1.8632,1.8612,1.8609,1.86,1.8592,1.8589,1.863,1.8636,1.8641,1.8647,1.859,1.859,1.8546,1.8546,1.8546]}]]